Погода в Чичканах

Россия / Чувашская Республика     55°12′25″N   47°26′06″E
темп.,
°C
ветер,
м/с
пор.,
м/с
влажн.,
%
обл.,
%
осадки,
мм/ч
давл.,
гПа
погр.,
м
21 апреля, ср
ср2100:00+5юв91742100 0.0 1023732
03:00+4юв101947100 0.0 1022738
06:00+3юв101963100 0.9 1021827
09:00+2юв102082100 3.3 1020842
12:00+3юв101877100 0.1 1020797
15:00+2юв101785100 0.6 1019688
18:00+2ююв91790100 0.6 1019695
21:00+3ююв81692100 0.8 1018672
22 апреля, чт
чт2200:00+4ю81793100 0.1 1018787
03:00+5ююз51190100 0.1 1019453
06:00+5ююв5996100 0.0 1021289
09:00+7ю698458 0.0 1022489
12:00+12ю7106087 0.2 10211529
15:00+13ююз795770 1.1 10211618
18:00+11ююз587045 1.4 1022356
21:00+8ю238449 2.3 102366
23 апреля, пт
пт2300:00+6ююз11905 0.0 102415
03:00+5ююз11874 0.0 102410
06:00+6ю11845 0.0 102519
09:00+11ююв33645 0.0 1025490
12:00+14юв335030 0.0 10241593
15:00+14юв444799 0.0 10231485
18:00+13вюв475736 0.0 1023229
21:00+9вюв49765 0.0 1023206
24 апреля, сб
сб2400:00+7юв358656 0.0 102192
03:00+6в3491100 0.0 102067
06:00+6в3788100 0.0 1019281
09:00+10в4574100 0.0 1017660
12:00+11вюв4464100 0.1 10151151
15:00+11юв557189 0.3 1013835
18:00+10юв567370 0.1 1012724
21:00+7вюв51087100 0.1 1011349
25 апреля, вс
вс2500:00+6юв61289100 0.0 1008405
03:00+6ю6993100 2.6 1006957
06:00+4зюз51288100 3.3 1008927
09:00+8зюз811645 3.3 10101252
12:00+10зюз8124644 0.0 10112204
15:00+11зюз71138100 0.0 10112721
18:00+9зюз475113 0.1 1012507
21:00+5юз387742 0.6 1013180